Wind_Speed
26 27 27 27 26 24 20 19 7 4 4 13 16 13 20 12 32 50 54 57 56 53 51 48 46 45 42 39 37 34 32 29 27 25 24 27 28 27
26 28 30 29 26 25 22 21 16 7 3 13 11 23 21 9 17 24 45 55 55 54 51 49 45 45 44 41 39 36 34 31 29 26 25 25 27 28
30 27 30 29 27 28 24 23 21 14 5 9 13 17 13 17 8 15 12 46 56 54 52 49 47 44 43 42 40 38 35 33 30 28 26 24 24 26
30 27 32 31 29 28 26 24 22 18 9 7 8 16 21 23 14 24 20 18 42 55 52 49 47 45 43 43 42 40 37 35 32 29 27 27 24 24
30 27 33 33 31 29 26 25 25 20 21 12 13 16 13 24 18 11 12 24 17 34 46 49 48 46 44 42 42 41 39 37 35 32 29 28 28 25
31 28 34 35 33 30 26 26 26 23 24 16 13 15 18 15 13 20 7 8 20 29 37 46 51 47 45 43 41 41 41 39 37 35 32 30 28 27
32 31 33 33 31 28 26 30 26 22 21 20 18 15 15 13 18 16 14 6 8 29 33 41 49 51 48 45 43 41 41 41 39 37 35 33 31 28
34 32 33 36 35 29 27 30 34 30 23 21 18 15 17 18 21 17 17 9 3 25 30 27 38 42 48 48 45 43 41 41 39 37 36 33 33 32
33 34 34 35 37 31 27 32 30 34 28 24 20 18 17 23 16 14 12 6 3 15 7 17 32 32 40 47 45 43 43 42 41 39 37 35 31 31
29 35 33 35 37 32 30 30 33 32 33 29 29 27 29 26 18 12 13 11 14 27 8 7 25 21 33 41 44 43 44 43 42 42 40 38 37 34
28 31 33 37 37 33 32 29 30 34 31 34 33 33 33 34 31 20 30 19 8 16 38 9 6 14 25 28 35 37 42 44 44 44 43 42 40 38
27 29 34 35 36 36 35 32 32 31 31 35 37 39 39 38 42 40 32 23 12 9 30 17 18 7 5 18 26 26 27 35 42 44 44 44 43 43
27 29 34 31 35 37 36 35 31 28 29 30 32 35 37 41 40 42 44 40 24 13 28 15 20 12 5 1 9 15 17 20 21 21 22 26 34 41
28 29 29 30 31 36 37 34 34 31 31 32 33 35 34 36 38 36 38 40 38 32 28 28 14 19 13 10 8 12 15 11 7 6 6 12 18 22
25 25 27 30 30 33 35 35 36 35 32 33 32 33 31 30 35 37 35 35 39 42 34 32 32 25 26 19 9 20 11 20 17 9 4 2 3 7
24 26 26 27 29 30 34 35 34 34 31 30 28 29 29 33 34 32 30 27 30 36 40 36 29 36 31 35 30 27 30 17 25 21 13 8 3 1
22 25 28 29 30 31 31 32 33 32 33 31 31 30 31 30 32 32 31 28 30 29 33 40 32 26 36 36 26 30 28 28 28 26 21 14 16 14
23 25 26 27 28 28 28 29 30 31 31 29 29 29 29 30 29 31 29 30 28 29 30 31 31 25 21 25 35 28 29 28 32 30 29 21 20 17
24 24 24 25 24 24 25 26 27 28 27 29 29 28 28 27 29 30 30 28 28 28 29 29 30 28 18 10 19 32 28 29 28 32 33 24 19 16
21 21 21 22 22 24 25 25 25 27 27 27 29 28 27 27 27 28 29 28 27 26 27 31 34 29 23 16 14 23 30 31 27 25 26 25 17 13
18 18 19 20 20 20 22 22 23 24 26 26 27 28 28 27 27 27 27 29 28 27 26 28 31 26 23 22 21 23 31 29 26 26 21 20 21 14
14 15 15 17 18 19 19 20 21 23 23 25 26 27 27 26 26 26 26 26 26 25 23 25 29 28 28 25 20 22 28 30 29 24 23 24 17 11
10 11 11 12 13 15 16 17 19 20 21 22 24 24 25 25 24 24 24 23 26 26 25 25 26 26 25 24 23 24 27 27 31 28 27 24 20 22
Wind_Direction
12 8 7 2 2 5 9 11 349 329 347 10 33 7 340 34 171 191 195 194 196 197 199 199 199 201 201 200 201 201 200 197 195 194 196 194 191 190
9 15 10 6 3 5 9 10 4 329 325 16 14 359 351 47 161 176 194 193 197 199 200 202 202 203 204 204 205 204 204 202 200 198 198 199 198 197
12 17 11 8 5 6 8 7 2 357 336 17 13 5 4 46 177 208 160 198 196 200 202 203 204 205 207 207 208 208 207 207 204 203 202 203 203 200
10 16 13 9 11 7 8 7 2 6 347 1 331 5 13 12 63 187 218 174 200 199 204 206 207 208 209 211 211 212 211 210 208 206 206 207 207 207
15 18 16 11 8 4 14 8 11 8 28 0 10 10 3 29 42 66 189 221 207 209 211 211 211 211 212 213 213 214 214 213 212 211 210 211 212 212
19 21 19 14 8 8 24 17 16 19 23 25 26 28 18 9 40 41 55 176 210 215 218 216 216 215 214 214 215 216 216 216 216 215 214 214 215 217
23 23 21 16 21 27 31 29 27 29 22 25 26 30 13 9 21 8 8 308 265 217 205 212 215 214 215 214 215 217 219 218 219 219 218 220 220 220
23 21 23 19 24 27 35 37 39 39 32 31 23 22 9 9 8 7 26 13 21 196 195 195 210 210 216 215 215 217 219 220 220 221 223 225 227 226
27 24 23 24 25 27 32 37 41 46 48 41 32 22 11 7 2 20 15 12 314 354 250 169 197 202 213 220 216 220 222 223 224 224 225 225 228 231
30 25 24 26 29 30 31 34 34 38 40 43 39 35 36 31 36 24 12 24 77 26 84 130 187 193 210 220 220 223 226 225 227 228 228 230 231 233
26 26 28 27 28 33 37 36 37 34 35 43 45 47 53 50 49 47 36 37 37 19 18 45 71 168 193 214 228 228 229 226 230 230 232 234 235 237
24 25 29 29 31 35 36 33 34 25 29 34 38 40 45 51 53 55 48 47 27 14 7 21 19 62 152 179 209 210 213 225 234 234 234 234 236 240
26 23 26 30 33 36 40 37 37 34 34 36 36 36 36 41 47 52 55 54 48 39 22 27 15 22 18 146 125 155 199 209 214 215 219 228 235 239
30 27 29 31 35 36 39 38 39 39 39 39 37 34 31 33 42 50 55 53 54 49 42 46 36 28 359 23 41 55 80 120 137 162 212 231 235 239
32 34 35 35 35 36 36 39 37 35 35 37 33 30 27 32 42 44 52 51 52 52 50 50 52 54 56 43 47 21 39 28 42 46 131 177 239 267
32 33 37 38 38 38 35 35 37 37 37 35 33 31 32 33 35 33 36 38 43 40 48 50 49 53 56 55 50 34 37 30 24 26 43 57 98 285
35 35 36 34 34 33 34 33 32 35 34 32 32 31 31 32 33 33 36 37 42 36 33 34 46 50 50 50 45 37 29 28 27 24 28 55 50 37
42 37 35 34 34 31 31 30 30 32 31 31 33 34 33 30 32 32 35 37 36 34 34 29 28 36 40 43 42 33 27 21 23 24 23 22 25 23
44 41 38 35 34 35 35 32 29 30 32 32 32 32 32 34 34 34 32 32 33 31 29 27 28 30 30 31 23 36 27 17 13 18 19 21 13 22
44 40 39 38 36 32 30 31 31 29 31 32 30 30 33 33 33 33 33 31 30 29 30 25 22 21 24 15 12 25 26 23 15 4 12 14 18 28
43 42 39 38 38 38 36 36 35 34 35 34 31 31 32 33 32 31 31 31 31 28 28 22 19 27 27 30 28 20 15 19 23 13 15 10 4 2
49 46 41 40 37 36 36 38 38 36 36 31 32 31 33 33 32 31 29 29 27 26 23 22 24 27 27 22 18 18 12 10 15 25 19 12 4 358
49 52 48 49 46 43 41 39 43 39 42 39 31 30 31 31 31 33 31 30 27 24 22 20 20 24 26 22 20 13 8 9 4 5 7 17 2 357
Height
779 773 768 761 755 750 746 741 738 731 720 713 711 720 717 694 718 732 741 752 764 774 783 792 801 809 816 823 831 837 843 848 853 857 862 865 870 875
782 776 769 763 757 753 749 746 743 738 728 721 722 719 718 711 720 725 739 749 761 770 779 788 796 805 813 820 828 834 840 845 850 855 860 864 868 872
785 780 775 769 761 755 751 749 744 740 734 727 731 729 728 720 726 724 736 748 756 767 776 784 793 801 809 816 824 831 837 843 848 853 857 862 866 869
789 783 778 772 767 761 756 750 747 741 738 736 735 730 726 728 728 732 741 745 754 764 773 781 789 797 805 813 820 828 834 840 845 850 855 859 863 867
796 790 783 776 770 767 762 755 746 744 737 741 737 738 736 729 730 731 737 744 752 762 771 778 785 793 801 808 816 824 831 837 842 847 852 856 860 863
800 795 790 782 778 771 767 762 755 749 746 749 745 744 742 742 741 738 743 744 750 756 764 773 782 788 796 804 812 820 826 832 838 843 848 852 856 860
805 801 796 790 784 779 775 768 766 759 754 751 751 751 752 748 744 746 741 740 742 750 757 765 775 783 791 799 806 814 821 827 833 838 843 848 852 856
808 803 800 793 788 784 780 776 771 764 763 762 761 761 758 754 749 747 747 748 752 749 754 762 770 777 785 792 800 808 815 821 827 833 838 843 848 852
814 808 805 800 793 788 784 779 774 771 774 771 769 768 764 759 757 753 753 753 755 748 748 758 766 774 781 787 794 802 809 816 822 827 832 837 842 846
821 816 812 807 800 794 789 783 781 779 780 778 775 772 767 761 757 756 754 750 751 753 750 754 762 766 775 783 788 795 803 810 816 820 825 830 835 839
827 825 819 812 807 803 798 796 793 791 787 782 781 778 772 767 762 758 751 752 757 756 755 755 762 765 772 777 782 789 796 802 808 813 818 823 827 832
833 830 824 821 816 810 804 801 795 798 793 788 785 782 778 774 769 766 765 763 765 766 765 763 763 764 768 773 777 784 790 794 799 804 810 814 820 823
837 833 830 828 824 817 813 809 809 807 802 797 794 788 785 782 779 778 774 772 776 780 780 773 772 770 772 773 773 778 785 790 793 797 801 805 809 813
843 840 837 834 830 826 820 818 814 811 808 803 801 798 798 794 793 789 786 786 786 787 784 779 780 780 778 775 779 781 783 784 790 792 795 798 801 805
850 848 844 839 835 831 830 826 820 816 814 810 809 807 808 806 801 797 796 796 794 791 791 790 789 788 787 789 790 792 788 790 789 789 792 794 796 799
855 852 848 846 843 841 836 832 829 828 825 822 821 820 817 811 808 807 804 805 802 800 800 797 797 798 795 794 797 797 796 795 794 793 790 793 792 793
860 857 854 852 848 845 843 840 839 836 833 831 829 827 823 821 818 816 813 813 810 809 806 805 805 806 805 803 802 804 805 803 802 798 797 794 792 795
864 863 861 859 856 854 852 851 849 845 843 841 837 836 833 831 828 824 822 819 818 817 816 815 813 811 812 813 811 810 809 807 805 801 797 794 793 797
869 869 868 867 867 867 866 863 858 855 853 849 847 844 842 840 836 833 832 830 826 824 824 822 819 816 816 818 820 818 815 812 809 805 803 801 800 800
876 875 875 874 872 870 868 865 863 861 859 858 855 852 850 848 845 842 840 838 835 834 832 829 825 825 826 827 827 824 821 818 814 812 808 806 806 805
882 881 880 878 877 876 874 872 871 869 867 866 863 858 857 853 852 849 845 844 843 841 840 839 838 837 834 830 827 826 824 823 821 817 814 811 808 806
886 885 884 883 881 879 878 876 875 874 872 869 866 864 862 861 858 856 855 854 851 848 848 846 843 840 837 835 835 833 830 827 823 821 819 816 813 810
889 888 886 885 884 883 881 879 878 876 873 871 870 870 865 864 864 863 863 860 857 854 852 850 848 846 844 842 841 838 834 831 827 823 820 819 819 815